Regional Weather Roundup
Issued by NWS

Home | Current Version | Previous Version | Graphics & Text | Print | Product List | Glossary On
Versions: 1 2 3 4 5 6 7 8 9 10 11 12 13 14 15 16 17 18 19 20 21 22 23 24 25 26 27 28 29 30 31 32 33 34 35 36 37 38 39 40 41 42 43 44 45 46 47 48 49 50
626
ASUS44 KLIX 060010
RWRLA
LOUISIANA WEATHER ROUNDUP
NATIONAL WEATHER SERVICE NEW ORLEANS LA
600 PM CST THU MAR 05 2015

NOTE: "FAIR" INDICATES FEW OR NO CLOUDS BELOW 12,000 FEET WITH NO
      SIGNIFICANT WEATHER AND/OR OBSTRUCTIONS TO VISIBILITY.
      SKY/WX - SKY CONDITION AND SIGNIFICANT WEATHER.
      TMP - AIR TEMPERATURE.    DP   - DEWPOINT TEMPERATURE.
      RH  - RELATIVE HUMIDITY.  PRES - PRESSURE.
      HX  - HEAT INDEX.         WCI  - WIND CHILL INDEX.

*  THESE STATIONS ARE NOT NWS OR FAA STATIONS AND ARE NOT UNDER
   NWS QUALITY CONTROL.

LAZ040-048-061>063-065-066-069-060100-
SOUTHEAST LOUISIANA

CITY           SKY/WX    TMP DP  RH WIND       PRES   REMARKS
N.O. AUDUBON     N/A     38  33  81 MISG        N/A
6HR MIN TEMP:  38; 6HR MAX TEMP:  45;

N.O. INTL ARPT CLOUDY    38  30  73 N22G38    30.35R WCI  27
6HR MIN TEMP:  38; 6HR MAX TEMP:  44; 6HR PCP: TRACE;

N.O. LAKEFRONT CLOUDY    41  32  70 N28G38    30.35R
6HR MIN TEMP:  40; 6HR MAX TEMP:  46;

SLIDELL        CLOUDY    37  30  75 N18G28    30.34R WCI  27
6HR MIN TEMP:  36; 6HR MAX TEMP:  42; 6HR PCP: TRACE;

BATON ROUGE    MOCLDY    36  24  62 N10G24    30.42R WCI  28
6HR MIN TEMP:  33; 6HR MAX TEMP:  36; 6HR PCP:  0.02;

BOOTHVILLE     CLOUDY    44  38  79 N15G28    30.29R
6HR MIN TEMP:  44; 6HR MAX TEMP:  53;

BELLE CHASSE   CLOUDY    39  30  70 N13G31    30.31R WCI  31
6HR MIN TEMP:  39; 6HR MAX TEMP:  46;

BOGALUSA*        N/A     36  30  78 N13G22    30.40R WCI  28
6HR MIN TEMP:  35; 6HR MAX TEMP:  40;

GALLIANO*      CLOUDY    42  36  79 N18G29    30.31R
6HR MIN TEMP:  42; 6HR MAX TEMP:  51;

NEW ROADS*     FAIR      34  22  60 N16       30.45R WCI  24
6HR MIN TEMP:  31; 6HR MAX TEMP:  37; 6HR PCP:  0.02;

GONZALES*      CLOUDY    36  28  71 N13G24    30.38R WCI  28
6HR MIN TEMP:  35; 6HR MAX TEMP:  38;

HAMMOND*       CLOUDY    36  28  75 N14G25    30.41R WCI  27
HOUMA*         CLOUDY    37  30  75 N20G28    30.34R WCI  27
PORT FOURCHON* CLOUDY    43  37  81 N28G35    30.33R

$$

LAZ041-044-053-054-060100-
SOUTHWEST LOUISIANA

CITY           SKY/WX    TMP DP  RH WIND       PRES   REMARKS
LAKE CHARLES   CLEAR     42  27  55 N20G26    30.43R
6HR MIN TEMP:  35; 6HR MAX TEMP:  44; 6HR PCP: TRACE;

LAFAYETTE      PTCLDY    36  22  56 N23G33    30.42R WCI  24
6HR MIN TEMP:  32; 6HR MAX TEMP:  38; 6HR PCP:  0.02;

PATTERSON      CLOUDY    37  27  65 N18G26    30.36S WCI  27
6HR MIN TEMP:  36; 6HR MAX TEMP:  41;

SALT POINT       N/A     38  28  67 N13G26    30.34R WCI  30
6HR MIN TEMP:  36; 6HR MAX TEMP:  41;

NEW IBERIA     NOT AVBL
CHENAULT AIRPK CLEAR     41  27  56 N10G18    30.44R

$$

LAZ027-028-060100-
CENTRAL LOUISIANA

CITY           SKY/WX    TMP DP  RH WIND       PRES   REMARKS
FORT POLK      CLEAR     38  21  49 N8G18     30.46R WCI  33
6HR MIN TEMP:  30; 6HR MAX TEMP:  41;

ALEXANDRIA INT CLEAR     38  20  48 N12       30.47R WCI  30
6HR MIN TEMP:  30; 6HR MAX TEMP:  40;

ALEXANDRIA     CLEAR     38  21  50 NE6       30.48R WCI  33
6HR MIN TEMP:  32; 6HR MAX TEMP:  40;


$$

LAZ001-002-060100-
NORTHWEST LOUISIANA

CITY           SKY/WX    TMP DP  RH WIND       PRES   REMARKS
SHREVEPORT     PTCLDY    39  21  48 N10       30.52R WCI  32
6HR MIN TEMP:  36; 6HR MAX TEMP:  41;

BARKSDALE AFB  CLEAR     38  20  49 N10       30.52R WCI  31
6HR MIN TEMP:  35; 6HR MAX TEMP:  42;

DTN SHREVEPORT CLEAR     38  18  44 N8        30.53R WCI  32
6HR MIN TEMP:  35; 6HR MAX TEMP:  41;


$$

LAZ014-016-060100-
NORTHEAST LOUISIANA

CITY           SKY/WX    TMP DP  RH WIND       PRES   REMARKS
MONROE         CLEAR     36  15  42 N16G25    30.53R WCI  26
6HR MIN TEMP:  31; 6HR MAX TEMP:  40;

TALLULAH       CLEAR     32  21  64 N18       30.51R WCI  20
6HR MIN TEMP:  28; 6HR MAX TEMP:  34;


$$




USA.gov is the U.S. government's official web portal to all federal, state and local government web resources and services.